This is the latest recevied weather packets stored in our database for station/object K3TLB-13. If no packets are shown the sender has not sent any weather packets the latest 1 day(s).
| Time | Temp. | Humidity | Pressure | Rain* | Wind** | Luminosity | Snow |
|---|---|---|---|---|---|---|---|
| 1778084493 | 15.56° C | 85% | 1007.9 hPa | 0 mm | - | - | - |
| 1778083592 | 15.56° C | 85% | 1008.1 hPa | 0.25 mm | - | - | - |
| 1778083472 | 15.56° C | 86% | 1008 hPa | 0 mm | - | - | - |
| 1778080563 | 15.56° C | 86% | 1007.8 hPa | 2.03 mm | - | - | - |
| 1778077440 | 15° C | 87% | 1009 hPa | 3.05 mm | - | - | - |
| 1778077205 | 15° C | 87% | 1009 hPa | 2.54 mm | - | - | - |
| 1778077139 | 15° C | 87% | 1009 hPa | 2.54 mm | - | - | - |
| 1778076775 | 15.56° C | 86% | 1008.5 hPa | 1.52 mm | - | - | - |
| 1778076539 | 15.56° C | 86% | 1008.4 hPa | 1.52 mm | - | - | - |
| 1778076239 | 15.56° C | 86% | 1008.5 hPa | 1.52 mm | - | - | - |
| 1778074739 | 15.56° C | 87% | 1008.2 hPa | 1.52 mm | - | - | - |
| 1778073539 | 15° C | 87% | 1008.3 hPa | 1.52 mm | - | - | - |
| 1778072639 | 15° C | 86% | 1008.3 hPa | 1.27 mm | - | - | - |
| 1778072339 | 15° C | 85% | 1008.3 hPa | 1.27 mm | - | - | - |
| 1778072039 | 15° C | 85% | 1008.4 hPa | 1.27 mm | - | - | - |
| 1778071739 | 15° C | 85% | 1008.3 hPa | 1.27 mm | - | - | - |
| 1778071439 | 15° C | 85% | 1008.3 hPa | 1.27 mm | - | - | - |
| 1778070539 | 15.56° C | 84% | 1008.4 hPa | 1.52 mm | - | - | - |
| 1778069939 | 15.56° C | 83% | 1008.5 hPa | 1.27 mm | - | - | - |
| 1778069639 | 15.56° C | 83% | 1008.5 hPa | 1.27 mm | - | - | - |
| 1778069039 | 15.56° C | 82% | 1008.5 hPa | 1.27 mm | - | - | - |
| 1778068439 | 15.56° C | 80% | 1008.6 hPa | 1.02 mm | - | - | - |
| 1778068139 | 15.56° C | 80% | 1008.8 hPa | 1.02 mm | - | - | - |
| 1778067539 | 16.11° C | 78% | 1008.9 hPa | 0.51 mm | - | - | - |
| 1778067239 | 16.11° C | 77% | 1009 hPa | 0.25 mm | - | - | - |
* Rain latest hour (hover to see other rain measurements)
** Current wind speed in m/s (hover to see current wind gust speed)